Weather Roundup
Issued by NWS

Home | Current Version | Previous Version | Text Only | Print | Product List | Glossary On
Versions: 1 2 3 4 5 6 7 8 9 10 11 12 13 14 15 16 17 18 19 20 21 22 23 24 25 26 27 28 29 30 31 32 33 34 35 36 37 38 39 40 41 42 43 44 45 46 47 48 49 50
000
NZUS93 KARX 170859
HRRWXR

CURRENT HOURLY OBSERVATIONS ACROSS
MUCH OF THE UPPER MISSISSIPPI VALLEY
NATIONAL WEATHER SERVICE LA CROSSE WI
400 AM CDT FRI APR 17 2015


...SOUTHEAST MINNESOTA...


CITY           SKY/WX    TMP DP  RH WIND       PRES   REMARKS
ROCHESTER      CLEAR     53  44  71 W7        30.09S
ROCHESTER/MAYO FAIR      56  46  68 CALM      30.08R
WINONA         CLEAR     50  45  81 CALM      30.07R
AUSTIN         CLEAR     46  45  93 CALM      30.08F
ALBERT LEA     CLEAR     48  46  93 CALM      30.08S
DODGE CENTER   CLEAR     50  45  81 W5        30.08S
PRESTON        CLEAR     53  45  74 CALM      30.08S
OWATONNA       CLEAR     46  41  81 CALM      30.08S
FARIBAULT      CLEAR     46  43  87 CALM      30.08S
$$

...ELSEWHERE IN MINNESOTA...


CITY           SKY/WX    TMP DP  RH WIND       PRES   REMARKS
MINNEAPOLIS    CLEAR     56  45  66 S6        30.07S
INTNL FALLS    CLEAR     24  22  91 CALM      30.09S
DULUTH         PTCLDY    49  35  58 N9        30.07R
RED WING       CLEAR     48  43  81 CALM      30.06S
REDWOOD FALLS  CLEAR     47  40  76 W7        30.10R
MANKATO        CLEAR     52  41  66 CALM      30.08S
WORTHINGTON    PTCLDY    46  37  71 N9        30.12S
FAIRMONT       CLEAR     50  34  53 W5        30.08S
$$

...SOUTHWEST WISCONSIN...


CITY           SKY/WX    TMP DP  RH WIND       PRES   REMARKS
LA CROSSE      CLOUDY    57  46  66 S6        30.05S
PRAIRIE DU CHI CLEAR     49  43  80 CALM      30.08S
BOSCOBEL       PTCLDY    46  41  82 CALM      30.08S
LONE ROCK      NOT AVBL
PLATTEVILLE    CLEAR     56  42  59 SW5       30.09R
FORT MC COY    CLOUDY    45  38  76 CALM      30.07R
VIROQUA        CLOUDY    57  40  53 SW3       30.07S
WIS DELLS      PTCLDY    51  37  59 SW5       30.07R
$$

...ELSEWHERE IN WISCONSIN...


CITY           SKY/WX    TMP DP  RH WIND       PRES   REMARKS
MILWAUKEE      CLEAR     53  41  63 W8        30.07R
MADISON        CLOUDY    50  38  63 CALM      30.07R
GREEN BAY      PTCLDY    45  40  82 S5        30.03S
EAU CLAIRE     NOT AVBL
BLACK RVR FLS  CLOUDY    50  40  69 CALM      30.05R
MEDFORD        CLEAR     47  38  69 CALM      30.05R
WAUSAU         CLOUDY    53  40  61 CALM      30.02S
WIS RAPIDS     CLOUDY    46  38  73 SW3       30.06R
MARSHFIELD     CLEAR     48  39  71 SW7       30.05R
RICE LAKE      CLEAR     44  40  87 CALM      30.06S
$$

...NORTHEAST IOWA...


CITY           SKY/WX    TMP DP  RH WIND       PRES   REMARKS
DECORAH        CLOUDY    54  45  71 CALM      30.07S
MASON CITY     CLEAR     47  44  90 W5        30.09F
CHARLES CITY   CLEAR     52  48  87 CALM      30.08F
OELWEIN        CLEAR     52  48  87 CALM      30.08F
$$

...ELSEWHERE IN IOWA...


CITY           SKY/WX    TMP DP  RH WIND       PRES   REMARKS
DES MOINES     PTCLDY    56  49  77 CALM      30.08S
IOWA CITY      CLEAR     49  46  90 CALM      30.08F
FORT DODGE     PTCLDY    48  45  87 CALM      30.08S
$$

...NORTHERN ILLINOIS...


CITY           SKY/WX    TMP DP  RH WIND       PRES   REMARKS
CHICAGO-OHARE  CLEAR     50  44  80 SW6       30.08R
CHICAGO-MIDWAY PTCLDY    50  44  80 CALM      30.09S
MOLINE         CLEAR     47  41  80 SE3       30.07F
ROCKFORD       CLEAR     50  42  74 S3        30.10S
PEORIA         CLEAR     56  50  80 CALM      30.08F
$$

NOTE: "FAIR" INDICATES FEW OR NO CLOUDS BELOW 12,000 FEET WITH NO
SIGNIFICANT WEATHER AND/OR OBSTRUCTIONS TO VISIBILITY. WIND
SPEEDS ARE IN MILES-PER-HOUR.



USA.gov is the U.S. government's official web portal to all federal, state and local government web resources and services.